User: anonymous   Login
Location: Columbia
(38.9520°N, 92.3340°W)
Time: 08:41:03
(UTC-05:00)
Language:

Iridium 22 - Orbit

View from above orbital plane
View from above orbital plane
View from above satellite
View from above satellite

Ground track
Ground track

The orbit data is extracted from the following two-line orbital elements,

1 24907U 97043E   16271.79232209  .00000223  00000-0  72514-4 0  9996
2 24907  86.4017   5.7772 0002236  98.1911 261.9538 14.34217817   226
Epoch (UTC): 27 September 2016 19:00:56
Eccentricity: 0.0002236
inclination: 86.4017°
perigee height: 776 km
apogee height: 779 km
right ascension of ascending node: 5.7772°
argument of perigee: 98.1911°
revolutions per day: 14.34217817
mean anomaly at epoch: 261.9538°
orbit number at epoch: 22

The dashed part of the orbit path shows where the satellite is in the earth's shadow,  

DLR